Location: Aragoneses
(41.0275°N, 4.3847°W)
Time: 15:30:24
(UTC+00:00)

Tiangong - Pass Details

Date: 20 February 2026
Orbit: 382 x 391 km, 41.5° (Epoch: 5 March)

Event Time Altitude Azimuth Distance (km) Brightness Sun altitude
Rises 18:27:25 0° 280° (W) 2,260 3.4 -6.3°
Reaches altitude 10° 18:29:30 10° 277° (W) 1,403 2.2 -6.7°
Maximum altitude 18:32:38 61° 196° (SSW) 435 -1.7 -7.3°
Drops below altitude 10° 18:35:45 10° 115° (ESE) 1,394 0.2 -7.9°
Enters shadow 18:36:11 - 114° (ESE) 1,574 0.4 -7.9°
